• In Deutschland
  • Länderverzeichnis
  • Für 7 Tage
  • Wassertemperatur
  • Satellitenkarten
  • Wetterkarte
  • Widgets
  • user-avatar
    Anmelden

    Stündliche Wetter Kuntaur

    Heute, 20 Oktober, Samstag

    Zeit Temperatur Niederschläge Wind Luftdruck Luftfeuchtigkeit
    00:00 +29°C° 0 mm 3 m/S 756 mmHg 70%
    01:00 +29°C° 0 mm 2 m/S 756 mmHg 73%
    02:00 +28°C° 0 mm 2 m/S 756 mmHg 76%
    03:00 +28°C° 0 mm 2 m/S 756 mmHg 77%
    04:00 +28°C° 0 mm 2 m/S 756 mmHg 79%
    05:00 +28°C° 0 mm 3 m/S 756 mmHg 83%
    06:00 +28°C° 0 mm 3 m/S 757 mmHg 78%
    07:00 +29°C° 0 mm 2 m/S 757 mmHg 73%
    08:00 +30°C° 0 mm 2 m/S 757 mmHg 68%
    09:00 +32°C° 0 mm 2 m/S 757 mmHg 59%
    10:00 +36°C° 0 mm 2 m/S 757 mmHg 50%
    11:00 +37°C° 0 mm 1 m/S 757 mmHg 41%
    12:00 +37°C° 0 mm 1 m/S 756 mmHg 38%
    13:00 +39°C° 0 mm 1 m/S 756 mmHg 35%
    14:00 +40°C° 0 mm 1 m/S 755 mmHg 32%
    15:00 +39°C° 0 mm 1 m/S 755 mmHg 34%
    16:00 +39°C° 0 mm 1 m/S 755 mmHg 35%
    17:00 +37°C° 0 mm 1 m/S 755 mmHg 37%
    18:00 +37°C° 0 mm 2 m/S 755 mmHg 39%
    19:00 +35°C° 0 mm 2 m/S 756 mmHg 42%
    20:00 +34°C° 0 mm 2 m/S 756 mmHg 44%
    21:00 +32°C° 0 mm 2 m/S 756 mmHg 47%
    22:00 +32°C° 0 mm 2 m/S 756 mmHg 49%
    23:00 +32°C° 0 mm 2 m/S 757 mmHg 51%

    Morgen, 21 Oktober, Sonntag

    Zeit Temperatur Niederschläge Wind Luftdruck Luftfeuchtigkeit
    00:00 +31°C° 0 mm 2 m/S 756 mmHg 54%
    01:00 +30°C° 0 mm 1 m/S 756 mmHg 58%
    02:00 +30°C° 0 mm 1 m/S 756 mmHg 61%
    03:00 +29°C° 0 mm 1 m/S 756 mmHg 61%
    04:00 +29°C° 0 mm 1 m/S 756 mmHg 62%
    05:00 +29°C° 0 mm 1 m/S 756 mmHg 63%
    06:00 +30°C° 0 mm 1 m/S 756 mmHg 58%
    07:00 +31°C° 0 mm 2 m/S 756 mmHg 54%
    08:00 +34°C° 0 mm 2 m/S 757 mmHg 49%
    09:00 +36°C° 0 mm 2 m/S 757 mmHg 43%
    10:00 +38°C° 0 mm 2 m/S 756 mmHg 36%
    11:00 +40°C° 0 mm 3 m/S 756 mmHg 30%
    12:00 +42°C° 0 mm 3 m/S 755 mmHg 27%
    13:00 +43°C° 0 mm 3 m/S 754 mmHg 24%
    14:00 +44°C° 0 mm 3 m/S 754 mmHg 21%
    15:00 +42°C° 0 mm 2 m/S 753 mmHg 23%
    16:00 +41°C° 0 mm 2 m/S 753 mmHg 25%
    17:00 +40°C° 0 mm 1 m/S 753 mmHg 27%
    18:00 +39°C° 0 mm 1 m/S 754 mmHg 29%
    19:00 +36°C° 0 mm 1 m/S 754 mmHg 31%
    20:00 +35°C° 0 mm 1 m/S 755 mmHg 33%
    21:00 +35°C° 0 mm 2 m/S 755 mmHg 37%
    22:00 +34°C° 0 mm 2 m/S 755 mmHg 41%
    23:00 +32°C° 0 mm 2 m/S 755 mmHg 45%

    übermorgen, 22 Oktober, Montag

    Zeit Temperatur Niederschläge Wind Luftdruck Luftfeuchtigkeit
    00:00 +31°C° 0 mm 2 m/S 755 mmHg 47%
    01:00 +30°C° 0 mm 2 m/S 755 mmHg 49%
    02:00 +30°C° 0 mm 2 m/S 755 mmHg 51%
    03:00 +29°C° 0 mm 2 m/S 755 mmHg 51%
    04:00 +29°C° 0 mm 2 m/S 755 mmHg 51%
    05:00 +28°C° 0 mm 2 m/S 754 mmHg 51%
    06:00 +30°C° 0 mm 2 m/S 755 mmHg 48%
    07:00 +31°C° 0 mm 2 m/S 755 mmHg 45%
    08:00 +32°C° 0 mm 2 m/S 756 mmHg 42%
    09:00 +36°C° 0 mm 2 m/S 756 mmHg 36%
    10:00 +38°C° 0 mm 2 m/S 756 mmHg 31%
    11:00 +40°C° 0 mm 2 m/S 756 mmHg 26%
    12:00 +41°C° 0 mm 2 m/S 755 mmHg 25%
    13:00 +42°C° 0 mm 2 m/S 754 mmHg 24%
    14:00 +42°C° 0 mm 2 m/S 753 mmHg 23%
    15:00 +41°C° 0 mm 2 m/S 753 mmHg 26%
    16:00 +40°C° 0 mm 3 m/S 753 mmHg 29%
    17:00 +39°C° 0 mm 3 m/S 753 mmHg 32%
    18:00 +38°C° 0 mm 3 m/S 754 mmHg 37%
    19:00 +36°C° 0 mm 3 m/S 755 mmHg 43%
    20:00 +34°C° 0 mm 4 m/S 756 mmHg 48%
    21:00 +33°C° 0 mm 3 m/S 756 mmHg 53%
    22:00 +31°C° 0 mm 3 m/S 757 mmHg 59%
    23:00 +31°C° 0 mm 3 m/S 757 mmHg 64%

    23 Oktober, Dienstag

    Zeit Temperatur Niederschläge Wind Luftdruck Luftfeuchtigkeit
    00:00 +30°C° 0 mm 3 m/S 757 mmHg 66%
    01:00 +29°C° 0 mm 2 m/S 756 mmHg 67%
    02:00 +29°C° 0 mm 2 m/S 756 mmHg 69%
    03:00 +29°C° 0 mm 2 m/S 756 mmHg 69%
    04:00 +28°C° 0 mm 2 m/S 756 mmHg 69%
    05:00 +28°C° 0 mm 2 m/S 756 mmHg 69%
    06:00 +29°C° 0 mm 2 m/S 757 mmHg 62%
    07:00 +31°C° 0 mm 2 m/S 757 mmHg 55%
    08:00 +33°C° 0 mm 3 m/S 758 mmHg 49%
    09:00 +36°C° 0 mm 2 m/S 758 mmHg 42%
    10:00 +38°C° 0 mm 2 m/S 757 mmHg 35%
    11:00 +40°C° 0 mm 2 m/S 757 mmHg 29%
    12:00 +41°C° 0 mm 2 m/S 756 mmHg 27%
    13:00 +43°C° 0 mm 1 m/S 755 mmHg 25%
    14:00 +41°C° 0 mm 0 m/S 754 mmHg 23%
    15:00 +43°C° 0 mm 1 m/S 754 mmHg 25%
    16:00 +41°C° 0 mm 1 m/S 754 mmHg 26%
    17:00 +40°C° 0 mm 1 m/S 754 mmHg 28%
    18:00 +39°C° 0 mm 1 m/S 755 mmHg 31%
    19:00 +36°C° 0 mm 1 m/S 756 mmHg 34%
    20:00 +36°C° 0 mm 2 m/S 756 mmHg 38%
    21:00 +35°C° 0 mm 2 m/S 756 mmHg 40%
    22:00 +34°C° 0 mm 2 m/S 756 mmHg 42%
    23:00 +34°C° 0 mm 2 m/S 757 mmHg 45%

    24 Oktober, Mittwoch

    Zeit Temperatur Niederschläge Wind Luftdruck Luftfeuchtigkeit
    00:00 +32°C° 0 mm 2 m/S 756 mmHg 47%
    01:00 +31°C° 0 mm 2 m/S 756 mmHg 50%
    02:00 +30°C° 0 mm 1 m/S 756 mmHg 53%
    03:00 +30°C° 0 mm 1 m/S 756 mmHg 53%
    04:00 +29°C° 0 mm 2 m/S 756 mmHg 53%
    05:00 +29°C° 0 mm 2 m/S 756 mmHg 53%
    06:00 +31°C° 0 mm 2 m/S 756 mmHg 49%
    07:00 +32°C° 0 mm 2 m/S 757 mmHg 44%
    08:00 +35°C° 0 mm 2 m/S 757 mmHg 39%
    09:00 +37°C° 0 mm 2 m/S 757 mmHg 34%
    10:00 +40°C° 0 mm 2 m/S 756 mmHg 29%
    11:00 +42°C° 0 mm 2 m/S 756 mmHg 24%
    12:00 +43°C° 0 mm 2 m/S 755 mmHg 22%
    13:00 +44°C° 0 mm 1 m/S 754 mmHg 21%
    14:00 +45°C° 0 mm 1 m/S 753 mmHg 19%
    15:00 +43°C° 0 mm 1 m/S 753 mmHg 21%
    16:00 +42°C° 0 mm 1 m/S 753 mmHg 23%
    17:00 +41°C° 0 mm 1 m/S 753 mmHg 24%
    18:00 +40°C° 0 mm 1 m/S 754 mmHg 27%
    19:00 +38°C° 0 mm 2 m/S 754 mmHg 30%
    20:00 +37°C° 0 mm 2 m/S 755 mmHg 33%
    21:00 +36°C° 0 mm 3 m/S 755 mmHg 38%
    22:00 +35°C° 0 mm 3 m/S 755 mmHg 43%
    23:00 +34°C° 0 mm 4 m/S 755 mmHg 48%

    25 Oktober, Donnerstag

    Zeit Temperatur Niederschläge Wind Luftdruck Luftfeuchtigkeit
    00:00 +33°C° 0 mm 3 m/S 755 mmHg 49%
    01:00 +31°C° 0 mm 3 m/S 755 mmHg 51%
    02:00 +31°C° 0 mm 3 m/S 755 mmHg 53%
    03:00 +30°C° 0 mm 3 m/S 755 mmHg 53%
    04:00 +30°C° 0 mm 3 m/S 755 mmHg 54%
    05:00 +29°C° 0 mm 3 m/S 755 mmHg 54%
    06:00 +30°C° 0 mm 3 m/S 756 mmHg 51%
    07:00 +33°C° 0 mm 4 m/S 756 mmHg 47%
    08:00 +34°C° 0 mm 4 m/S 757 mmHg 44%
    09:00 +36°C° 0 mm 4 m/S 756 mmHg 38%
    10:00 +40°C° 0 mm 4 m/S 756 mmHg 31%
    11:00 +42°C° 0 mm 4 m/S 755 mmHg 24%
    12:00 +43°C° 0 mm 4 m/S 755 mmHg 22%
    13:00 +44°C° 0 mm 4 m/S 754 mmHg 20%
    14:00 +45°C° 0 mm 3 m/S 753 mmHg 18%
    15:00 +44°C° 0 mm 3 m/S 753 mmHg 19%
    16:00 +43°C° 0 mm 3 m/S 753 mmHg 20%
    17:00 +41°C° 0 mm 2 m/S 753 mmHg 22%
    18:00 +40°C° 0 mm 3 m/S 754 mmHg 23%
    19:00 +39°C° 0 mm 3 m/S 754 mmHg 25%
    20:00 +37°C° 0 mm 3 m/S 755 mmHg 27%
    21:00 +36°C° 0 mm 3 m/S 755 mmHg 31%
    22:00 +35°C° 0 mm 2 m/S 755 mmHg 36%
    23:00 +32°C° 0 mm 2 m/S 755 mmHg 40%
    Mehr zeigen